Location: Unspecified
(44.0704°N, 88.6889°W)
Time: 21:44:03
(UTC+02:00)

Altair - Pass Details

Date: 20 June 2019
Orbit: 1501 x 1683 km, 47.2° (Epoch: 21 August)

Event Time Altitude Azimuth Distance (km) Brightness Sun altitude
Rises 07:43:03 0° 279° (W) 4,797 10.3 -22.4°
Reaches altitude 10° 07:46:07 10° 281° (W) 3,835 9.7 -22.5°
Maximum altitude 07:56:01 76° 8° (N) 1,696 7.7 -22.5°
Drops below altitude 10° 08:06:11 10° 94° (E) 3,939 9.6 -22.5°
Sets 08:09:23 0° 96° (E) 4,932 10.1 -22.4°
